TimeCDT,TemperatureF,Dew PointF,Humidity,Sea Level PressureIn,VisibilityMPH,Wind Direction,Wind SpeedMPH,Gust SpeedMPH,PrecipitationIn,Events,Conditions,WindDirDegrees,DateUTC
12:53 AM,88.0,71.1,57,29.88,10.0,South,12.7,18.4,N/A,,Clear,180,2013-08-03 05:53:00
1:53 AM,86.0,70.0,59,29.88,10.0,South,5.8,-,N/A,,Clear,190,2013-08-03 06:53:00
2:53 AM,82.9,71.1,67,29.88,10.0,Calm,Calm,-,N/A,,Clear,0,2013-08-03 07:53:00
3:53 AM,84.9,70.0,61,29.92,10.0,Calm,Calm,-,N/A,,Scattered Clouds,0,2013-08-03 08:53:00
4:53 AM,82.0,72.0,71,29.94,10.0,Calm,Calm,-,N/A,,Mostly Cloudy,0,2013-08-03 09:53:00
5:53 AM,82.9,73.9,74,29.96,10.0,ENE,4.6,-,N/A,,Partly Cloudy,60,2013-08-03 10:53:00
6:53 AM,82.0,73.9,76,29.98,10.0,NE,8.1,-,N/A,,Overcast,50,2013-08-03 11:53:00
7:40 AM,78.8,75.2,89,30.01,2.5,NE,6.9,-,0.10,Rain,Heavy Rain,50,2013-08-03 12:40:00
7:50 AM,78.8,75.2,89,30.01,4.0,ENE,6.9,-,0.12,Rain,Light Rain,70,2013-08-03 12:50:00
7:53 AM,78.1,75.9,93,30.01,5.0,East,9.2,-,0.13,Rain,Rain,80,2013-08-03 12:53:00
8:04 AM,78.8,75.2,89,30.01,6.0,ENE,6.9,-,0.01,Rain-Thunderstorm,Light Thunderstorms and Rain,60,2013-08-03 13:04:00
8:22 AM,77.0,75.2,94,30.00,10.0,East,11.5,17.3,0.01,Thunderstorm,Overcast,100,2013-08-03 13:22:00
8:42 AM,78.8,75.2,89,30.01,9.0,ESE,5.8,-,0.01,Thunderstorm,Mostly Cloudy,110,2013-08-03 13:42:00
8:53 AM,78.1,75.0,90,30.01,10.0,SSE,8.1,-,0.01,Thunderstorm,Thunderstorm,150,2013-08-03 13:53:00
9:03 AM,78.8,73.4,83,30.00,10.0,SSE,10.4,-,N/A,,Scattered Clouds,150,2013-08-03 14:03:00
9:53 AM,78.1,73.0,84,30.00,10.0,SE,17.3,23.0,0.00,,Overcast,130,2013-08-03 14:53:00
10:53 AM,75.9,73.0,91,30.03,10.0,SSE,8.1,18.4,0.02,,Mostly Cloudy,160,2013-08-03 15:53:00
11:53 AM,77.0,72.0,84,30.02,10.0,South,8.1,17.3,0.00,,Clear,170,2013-08-03 16:53:00
12:53 PM,78.1,72.0,81,30.03,10.0,SE,6.9,-,N/A,,Clear,130,2013-08-03 17:53:00
1:53 PM,79.0,72.0,79,30.02,10.0,ESE,8.1,-,N/A,,Clear,120,2013-08-03 18:53:00
2:53 PM,81.0,73.0,77,30.01,10.0,SE,9.2,-,N/A,,Clear,130,2013-08-03 19:53:00
3:53 PM,82.0,73.0,74,30.00,10.0,ESE,9.2,-,N/A,,Clear,120,2013-08-03 20:53:00
4:53 PM,82.0,73.9,76,29.99,10.0,ESE,8.1,-,N/A,,Clear,120,2013-08-03 21:53:00
5:53 PM,81.0,73.0,77,30.00,10.0,ESE,9.2,-,N/A,,Clear,110,2013-08-03 22:53:00
6:53 PM,82.0,73.0,74,30.00,10.0,ESE,6.9,-,N/A,,Clear,110,2013-08-03 23:53:00
7:53 PM,80.1,73.0,79,30.00,10.0,ESE,6.9,-,N/A,,Clear,110,2013-08-04 00:53:00
8:53 PM,81.0,73.0,77,30.02,10.0,SE,4.6,-,N/A,,Clear,140,2013-08-04 01:53:00
9:53 PM,80.1,73.9,81,30.04,10.0,ESE,4.6,-,N/A,,Clear,110,2013-08-04 02:53:00
10:53 PM,79.0,73.9,84,30.06,10.0,SE,4.6,-,N/A,,Clear,130,2013-08-04 03:53:00
11:53 PM,78.1,75.0,90,30.06,10.0,Calm,Calm,-,N/A,,Clear,0,2013-08-04 04:53:00